HYLAS 2

Last updated on Mon Oct 14 2024 00:02:39 GMT+0000 (Coordinated Universal Time)

1 38741U 12043B 24287.51160569 -.00000263 00000+0 00000+0 0 9999 2 38741 0.8382 88.5606 0002968 148.7186 111.9861 1.00272199 44634
UTC large
Height (km)
Speed (km/s)
/
Latitude / Longitude
Inclination (degrees)
Orbital Period (minutes)
Azimuth
Elevation
Range (km)
Doppler Factor

Next 0 passes for location: London (51.5072 / 0.1276)

Sorry there are no passes over London.